Location: Heilwood
(40.6210°N, 78.9150°W)
Time: 08:06:12
(UTC-04:00)

BREEZE-M DEB (TANK) - Visible Passes

Search period start: 01 October 2016 00:00
Search period end: 11 October 2016 00:00
Orbit: 305 x 15875 km, 49.5° (Epoch: 29 September)

Date Brightness Start Highest point End Pass type
(mag) Time Alt. Az. Time Alt. Az. Time Alt. Az.
01 Oct 5.3 06:05:26 10° S 06:09:27 30° ESE 06:21:02 10° ENE visible
02 Oct 5.2 06:08:36 10° S 06:12:40 34° ESE 06:25:15 10° ENE visible
03 Oct 5.1 06:11:48 10° S 06:15:53 39° ESE 06:29:27 10° ENE visible
04 Oct 5.0 06:15:00 10° SSW 06:19:07 45° ESE 06:33:38 10° ENE visible
05 Oct 4.8 06:18:12 10° SSW 06:22:23 50° SE 06:37:47 10° ENE visible
06 Oct 4.6 06:21:26 10° SSW 06:25:38 57° SE 06:41:57 10° ENE visible
06 Oct 8.7 16:25:28 10° WNW 17:07:02 39° WSW 18:56:16 10° SSW visible
07 Oct 4.5 06:24:39 10° SW 06:28:55 63° SE 06:46:06 10° ENE visible
07 Oct 8.7 16:29:20 10° WNW 17:10:27 37° WSW 18:55:48 10° SSW visible
08 Oct 4.3 06:27:53 10° SW 06:32:13 70° SE 06:50:17 10° ENE visible
08 Oct 8.8 16:33:15 10° WNW 17:13:47 35° WSW 18:54:58 10° SW visible
09 Oct 4.3 06:31:07 10° SW 06:35:31 77° SE 06:54:29 10° ENE visible
09 Oct 8.8 16:37:13 10° WNW 17:17:04 33° WSW 18:53:45 10° SW visible
10 Oct 4.3 06:34:20 10° SW 06:38:50 84° SE 06:58:42 10° ENE visible
10 Oct 8.8 16:41:15 10° WNW 17:20:18 30° WSW 18:52:07 10° SW visible
